Billings, MT

2:11 PM MDT on March 26, 2017 (GMT -0600)
Billings Logan International

Weather History for KBIL - March, 2015

Change the Weather History Date:

Monday, March 9, 2015

  Actual Average Record
Temperature  
Mean Temperature 50 °F 36 °F  
Max Temperature 66 °F 47 °F 72 °F (2005)
Min Temperature 34 °F 25 °F -13 °F (1951)
Degree Days  
Heating Degree Days 15 29  
Month to date heating degree days 278 272  
Since 1 July heating degree days 4919 5237  
Cooling Degree Days 0 0  
Month to date cooling degree days 0 0  
Year to date cooling degree days 0 0  
Moisture  
Dew Point 19 °F    
Average Humidity 38    
Maximum Humidity 61    
Minimum Humidity 15    
Precipitation  
Precipitation 0.00 in 0.03 in 0.75 in (1935)
Month to date precipitation 0.09 0.23  
Year to date precipitation 1.39 1.19  
Snow  
Snow 0.00 in 0.40 in 13.10 in (1935)
Month to date snowfall 3.1 2.8  
Since 1 July snowfall 47.2 37.3  
Snow Depth 0.00 in    
Sea Level Pressure  
Sea Level Pressure 29.92 in    
Wind  
Wind Speed 12 mph (WSW)    
Max Wind Speed 22 mph    
Max Gust Speed 28 mph    
Visibility 10 miles    
Events      
T = Trace of Precipitation, MM = Missing Value Source: NWS Daily Summary

Daily Weather History Graph

Daily Weather History Graph

Search for Another Location

Airport or City:

Trip Planner

Search our weather history database for the weather conditions in past years. The results will help you decide how hot, cold, wet, or windy it might be!

Date:

Astronomy

Mar. 09, 2015 Rise Set
Actual Time 7:38 AM MDT 7:11 PM MDT
Civil Twilight 7:08 AM MDT 7:41 PM MDT
Nautical Twilight 6:34 AM MDT 8:15 PM MDT
Astronomical Twilight 5:59 AM MDT 8:50 PM MDT
Moon 11:20 PM MDT (3/9) 9:21 AM MDT (3/9)
Length of Visible Light 12h 32m
Length of Day
11h 33m
Waning Gibbous, 86% of the Moon is Illuminated
Mar 9
Waning Gibbous
Mar 13
Last Quarter
Mar 20
New
Mar 27
First Quarter
Apr 4
Full

Hourly Weather History & Observations

Time (MDT) Temp. Windchill Dew Point Humidity Pressure Visibility Wind Dir Wind Speed Gust Speed Precip Events Conditions
12:53 AM 39.9 °F 34.5 °F 23.0 °F 51% 29.97 in 10.0 mi SSW 8.1 mph - N/A   Clear
1:53 AM 39.9 °F 33.4 °F 23.0 °F 51% 29.97 in 10.0 mi SW 10.4 mph - N/A   Clear
2:53 AM 39.2 °F 32.0 °F 21.2 °F 49% 29.97 in 10.0 mi WSW 11.5 mph - N/A   Clear
3:53 AM 37.9 °F 30.9 °F 19.9 °F 48% 29.98 in 10.0 mi WSW 10.4 mph - N/A   Clear
4:53 AM 39.9 °F 32.9 °F 21.0 °F 47% 29.96 in 10.0 mi SW 11.5 mph - N/A   Clear
5:53 AM 37.9 °F 29.6 °F 21.0 °F 51% 29.96 in 10.0 mi WSW 13.8 mph - N/A   Clear
6:53 AM 34.0 °F 25.5 °F 21.9 °F 61% 29.99 in 10.0 mi SW 11.5 mph - N/A   Clear
7:53 AM 36.0 °F 27.5 °F 21.0 °F 55% 29.99 in 10.0 mi WSW 12.7 mph - N/A   Partly Cloudy
8:53 AM 37.0 °F 27.0 °F 23.0 °F 57% 30.00 in 10.0 mi WSW 18.4 mph - N/A   Partly Cloudy
9:53 AM 44.1 °F 37.4 °F 24.1 °F 45% 30.00 in 10.0 mi WSW 13.8 mph - N/A   Partly Cloudy
10:53 AM 48.9 °F - 25.0 °F 39% 29.98 in 10.0 mi SW 13.8 mph - N/A   Partly Cloudy
11:53 AM 51.1 °F - 24.1 °F 35% 29.97 in 10.0 mi SW 12.7 mph - N/A   Partly Cloudy
12:53 PM 57.0 °F - 23.0 °F 27% 29.93 in 10.0 mi SW 16.1 mph - N/A   Partly Cloudy
1:53 PM 60.8 °F - 21.2 °F 22% 29.89 in 10.0 mi SW 12.7 mph - N/A   Partly Cloudy
2:53 PM 63.0 °F - 18.0 °F 18% 29.86 in 10.0 mi WSW 10.4 mph 23.0 mph N/A   Clear
3:53 PM 64.9 °F - 18.0 °F 16% 29.84 in 10.0 mi West 11.5 mph 19.6 mph N/A   Clear
4:53 PM 64.9 °F - 18.0 °F 16% 29.81 in 10.0 mi West 12.7 mph 20.7 mph N/A   Partly Cloudy
5:53 PM 64.0 °F - 16.0 °F 16% 29.81 in 10.0 mi WSW 12.7 mph - N/A   Scattered Clouds
6:53 PM 57.9 °F - 10.9 °F 16% 29.84 in 10.0 mi West 12.7 mph - N/A   Scattered Clouds
7:53 PM 54.0 °F - 10.0 °F 17% 29.86 in 10.0 mi West 11.5 mph - N/A   Mostly Cloudy
8:53 PM 53.1 °F - 10.0 °F 18% 29.86 in 10.0 mi WSW 9.2 mph - N/A   Scattered Clouds
9:53 PM 48.9 °F - 12.0 °F 23% 29.86 in 10.0 mi SSW 10.4 mph - N/A   Partly Cloudy
10:53 PM 45.0 °F 38.9 °F 12.0 °F 26% 29.90 in 10.0 mi WNW 12.7 mph - N/A   Clear
11:53 PM 52.0 °F - 16.0 °F 24% 29.90 in 10.0 mi WSW 11.5 mph - N/A   Clear